[[{"header":{"parameterUnit":"m.s-1","parameterCategory":1,"la1":30.2991,"la2":30.254,"lo1":-89.0895,"lo2":-89.0444,"dy":0.0017,"dx":0.0017,"nx":28,"ny":28,"refTime":"2024-12-31T03:00:00:Z","depth":0,"parameterNumber":2,"parameterNumberName":"U-component_of_WINDS"},"data":[0,0,0,0,0,0,0,0,0,0,0,0,0,0,0,0,0,0,0,0,0,0,0,0,0,0,0,0,0,0,0,0,0,0,0,0,0,0,0,0,0,0,0,0,0,0,0,0,0,0,0,0,0,0,0,0,0,0,-1.3751,-1.3752,0,-1.3827,-1.3828,-1.3829,-1.3775,-1.3772,-1.377,-1.3768,-1.3849,-1.3853,-1.3858,0,0,0,0,0,0,0,0,0,0,0,0,0,-1.3562,-1.3566,-1.3751,-1.3752,-1.3753,-1.3827,-1.3828,-1.3829,-1.3775,-1.3772,-1.3769,-1.3767,-1.3848,-1.3853,-1.3858,0,0,0,0,0,0,0,0,0,0,0,0,0,-1.3642,-1.3567,-1.3751,-1.3735,-1.3734,-1.3827,-1.3828,-1.3829,-1.3776,-1.3772,-1.3769,-1.3765,-1.3846,-1.3852,-1.3859,-1.3972,0,0,-1.3879,-1.3882,0,0,0,0,0,0,0,0,-1.3638,-1.3649,-1.3737,-1.3736,-1.3736,-1.3788,-1.3791,-1.3878,-1.3777,-1.376,-1.3768,-1.3764,-1.3832,-1.3839,-1.3862,-1.3976,-1.398,-1.388,-1.3884,-1.3887,-1.3889,0,0,0,0,0,0,0,-1.3632,-1.3646,-1.3781,-1.3738,-1.3737,-1.3725,-1.3732,-1.3807,-1.3816,-1.3761,-1.3758,-1.3767,-1.3831,-1.3856,-1.3863,-1.3981,-1.388,-1.3886,-1.389,-1.3892,-1.4193,-1.4197,0,0,0,0,0,0,-1.3628,-1.3641,-1.3779,-1.3784,-1.3677,-1.3731,-1.374,-1.3775,-1.3815,-1.3817,-1.377,-1.3764,-1.3846,-1.3856,-1.3866,-1.4002,-1.3887,-1.3893,-1.3897,-1.4189,-1.4194,-1.4198,0,0,0,0,0,0,-1.3624,-1.3641,-1.3776,-1.3712,-1.3728,-1.3738,-1.3779,-1.3778,-1.3803,-1.3821,-1.3823,-1.3794,-1.3844,-1.3857,-1.3946,-1.4005,-1.3896,-1.3902,-1.4184,-1.419,-1.4196,-1.4276,0,0,0,0,0,0,-1.3619,-1.3639,-1.3682,-1.3713,-1.3731,-1.3855,-1.3782,-1.3782,-1.3814,-1.3807,-1.3844,-1.3846,-1.3842,-1.3937,-1.3953,-1.4012,-1.3907,-1.4179,-1.4187,-1.4194,-1.4268,-1.4284,-1.4297,0,0,0,0,0,-1.3612,-1.3703,-1.3685,-1.3702,-1.3785,-1.3858,-1.3869,-1.3861,-1.3819,-1.3862,-1.3874,-1.3845,-1.3995,-1.3946,-1.3964,-1.4026,-1.4175,-1.4185,-1.4193,-1.4262,-1.4281,-1.4297,0,0,0,0,0,0,-1.368,-1.3706,-1.3687,-1.379,-1.3822,-1.3849,-1.3904,-1.3881,-1.3927,-1.3919,-1.3908,-1.3916,-1.4011,-1.4026,-1.3972,-1.4138,-1.4079,-1.4092,-1.4124,-1.4143,-1.4157,-1.4153,-1.3913,0,0,0,0,0,-1.3707,-1.3763,-1.3783,-1.3872,-1.3889,-1.3893,-1.3925,-1.3915,-1.3949,-1.3963,-1.3981,-1.4016,-1.407,-1.4107,-1.4158,-1.4269,-1.4277,-1.432,-1.4335,-1.4347,-1.4359,-1.442,-1.4439,-1.4228,-1.4227,-1.4227,0,0,-1.3763,-1.3784,-1.3821,-1.3886,-1.391,-1.3969,-1.3905,-1.3971,-1.4015,-1.3973,-1.4059,-1.4073,-1.4111,-1.4212,-1.4257,-1.4228,-1.4419,-1.4358,-1.4367,-1.4373,-1.4431,-1.4451,-1.4469,-1.4234,-1.4233,-1.4232,0,0,-1.3897,-1.3917,-1.3994,-1.4019,-1.4055,-1.4057,-1.4076,-1.4106,-1.4114,-1.4199,-1.4169,-1.4221,-1.4316,-1.4344,-1.4371,-1.4513,-1.4489,-1.453,-1.4608,-1.4667,-1.4684,-1.4698,-1.4751,-1.477,-1.4541,-1.4542,-1.4542,0,-1.3963,-1.405,-1.4037,-1.4105,-1.4135,-1.4097,-1.4175,-1.42,-1.4252,-1.4274,-1.424,-1.4357,-1.438,-1.4488,-1.4522,-1.4544,-1.4566,-1.4527,-1.4682,-1.4697,-1.471,-1.476,-1.478,-1.4547,-1.4546,-1.4546,-1.4545,0,-1.4131,-1.4192,-1.4249,-1.4299,-1.4335,-1.4408,-1.4406,-1.4444,-1.4431,-1.4437,-1.4525,-1.455,-1.4606,-1.463,-1.4619,-1.4737,-1.4718,-1.4683,-1.4624,-1.4736,-1.4783,-1.4802,-1.4554,-1.4552,-1.455,-1.4549,0,0,-1.4312,-1.4352,-1.4374,-1.4396,-1.4432,-1.448,-1.455,-1.4604,-1.4638,-1.4674,-1.4734,-1.4814,-1.4782,-1.4812,-1.4803,-1.4855,-1.4968,-1.4814,-1.4814,-1.4843,-1.5101,-1.5128,-1.5151,-1.495,-1.4954,-1.4957,-1.5098,0,-1.4449,-1.4572,-1.4561,-1.4678,-1.4735,-1.4699,-1.4761,-1.4791,-1.4798,-1.4847,-1.4855,-1.4913,-1.4865,-1.4883,-1.4932,-1.4944,-1.502,-1.4933,-1.5008,-1.5011,-1.5003,-1.5175,-1.5205,-1.5337,-1.5116,-1.5119,-1.5121,0,-1.4626,-1.4668,-1.479,-1.4818,-1.4841,-1.4897,-1.4945,-1.4993,-1.5025,-1.5027,-1.506,-1.5041,-1.5114,-1.505,-1.515,-1.5092,-1.5121,-1.5131,-1.5136,-1.5145,-1.5075,-1.5191,-1.5379,-1.54,-1.515,-1.5148,-1.5146,0,-1.4749,-1.4835,-1.492,-1.494,-1.4973,-1.5014,-1.503,-1.5058,-1.5091,-1.5133,-1.5154,-1.5204,-1.5233,-1.5272,-1.5268,-1.5222,-1.537,-1.5306,-1.5375,-1.5376,-1.5411,-1.5409,-1.5609,-1.5426,-1.5425,-1.5425,-1.5425,0,-1.4905,-1.4982,-1.4976,-1.5028,-1.5113,-1.5099,-1.5184,-1.5196,-1.5221,-1.5276,-1.5247,-1.5299,-1.5289,-1.5341,-1.5338,-1.5423,-1.5435,-1.5439,-1.5438,-1.5444,-1.5443,-1.5465,-1.5457,-1.543,-1.5429,-1.5428,-1.5427,0,-1.5059,-1.5057,-1.5147,-1.517,-1.5178,-1.524,-1.5261,-1.5311,-1.5314,-1.5383,-1.5399,-1.5405,-1.5465,-1.5463,-1.5532,-1.553,-1.5634,-1.5621,-1.5623,-1.5621,-1.5691,-1.5685,-1.5914,-1.5944,-1.5739,-1.5741,-1.5742,0,-1.516,-1.5218,-1.5247,-1.5281,-1.5299,-1.5354,-1.5387,-1.5375,-1.5411,-1.5452,-1.5497,-1.5553,-1.5599,-1.5696,-1.5707,-1.5759,-1.5748,-1.5825,-1.5756,-1.576,-1.5752,-1.575,-1.5756,-1.5839,-1.5842,-1.5843,-1.5845,0,-1.534,-1.5336,-1.5384,-1.5432,-1.5471,-1.5508,-1.5543,-1.5572,-1.5564,-1.5605,-1.5665,-1.57,-1.5769,-1.5826,-1.5876,-1.5893,-1.5869,-1.5866,-1.5885,-1.5893,-1.5892,-1.5895,-1.5662,-1.5861,-1.586,-1.5859,-1.5858,-1.5857,-1.5472,-1.5522,-1.5551,-1.5605,-1.5629,-1.5661,-1.5709,-1.5718,-1.5767,-1.5822,-1.5811,-1.5879,-1.591,-1.5973,-1.5995,-1.6048,-1.6021,-1.6049,-1.6056,-1.6064,-1.6072,-1.5881,-1.6057,-1.6056,-1.6056,-1.6055,-1.6055,0,-1.5653,-1.5669,-1.5718,-1.5767,-1.5809,-1.578,-1.5816,-1.5854,-1.5914,-1.5943,-1.5988,-1.6057,-1.6112,-1.6126,-1.6179,-1.6219,-1.6209,-1.6233,-1.6232,-1.6237,-1.6092,-1.6072,-1.624,-1.624,-1.624,-1.624,-1.624,-1.624,-1.5752,-1.5836,-1.5835,-1.593,-1.5945,-1.6011,-1.6034,-1.6064,-1.6088,-1.6166,-1.6211,-1.6219,-1.6243,-1.6297,-1.6346,-1.6349,-1.6371,-1.6401,-1.6399,-1.6265,-1.6247,-1.6229,-1.621,-1.6405,-1.6405,-1.6539,-1.654,-1.6541]},{"header":{"parameterUnit":"m.s-1","parameterCategory":1,"la1":30.2991,"la2":30.254,"lo1":-89.0895,"lo2":-89.0444,"dy":0.0017,"dx":0.0017,"nx":28,"ny":28,"refTime":"2024-12-31T03:00:00:Z","depth":0,"parameterNumber":3,"parameterNumberName":"V-component_of_WINDS"},"data":[0,0,0,0,0,0,0,0,0,0,0,0,0,0,0,0,0,0,0,0,0,0,0,0,0,0,0,0,0,0,0,0,0,0,0,0,0,0,0,0,0,0,0,0,0,0,0,0,0,0,0,0,0,0,0,0,0,0,-5.4536,-5.4537,0,-5.4634,-5.4635,-5.4636,-5.455,-5.4546,-5.4543,-5.4539,-5.4635,-5.4641,-5.4647,0,0,0,0,0,0,0,0,0,0,0,0,0,-5.4272,-5.4277,-5.4536,-5.4538,-5.4539,-5.4634,-5.4635,-5.4636,-5.455,-5.4546,-5.4542,-5.4538,-5.4634,-5.464,-5.4647,0,0,0,0,0,0,0,0,0,0,0,0,0,-5.438,-5.4279,-5.4536,-5.4507,-5.4506,-5.4633,-5.4635,-5.4637,-5.4551,-5.4546,-5.4541,-5.4536,-5.4631,-5.464,-5.4648,-5.4808,0,0,-5.4675,-5.4679,0,0,0,0,0,0,0,0,-5.4374,-5.4389,-5.451,-5.451,-5.4508,-5.4574,-5.4577,-5.4694,-5.4553,-5.4534,-5.4539,-5.4533,-5.4619,-5.4629,-5.4658,-5.4812,-5.4816,-5.4676,-5.4681,-5.4685,-5.4687,0,0,0,0,0,0,0,-5.4366,-5.4385,-5.4575,-5.4512,-5.4511,-5.4488,-5.4498,-5.4599,-5.4605,-5.4535,-5.4529,-5.4542,-5.4617,-5.465,-5.466,-5.4818,-5.4676,-5.4683,-5.4689,-5.4692,-5.5107,-5.5112,0,0,0,0,0,0,-5.4362,-5.4379,-5.4572,-5.4578,-5.4427,-5.4497,-5.4508,-5.4558,-5.4604,-5.4605,-5.4547,-5.4538,-5.4638,-5.465,-5.4663,-5.4853,-5.4685,-5.4693,-5.4698,-5.5101,-5.5108,-5.5114,0,0,0,0,0,0,-5.4357,-5.438,-5.4568,-5.4477,-5.4499,-5.4508,-5.4565,-5.4563,-5.4596,-5.4612,-5.4612,-5.4579,-5.4634,-5.4651,-5.4773,-5.4855,-5.4697,-5.4705,-5.5094,-5.5103,-5.5111,-5.5233,0,0,0,0,0,0,-5.435,-5.4379,-5.4441,-5.4479,-5.4504,-5.4678,-5.457,-5.4569,-5.4611,-5.4601,-5.4643,-5.4644,-5.4631,-5.476,-5.4781,-5.4864,-5.4712,-5.5087,-5.5098,-5.5109,-5.5222,-5.5245,-5.5265,0,0,0,0,0,-5.4341,-5.4471,-5.4444,-5.4468,-5.4582,-5.4682,-5.4697,-5.468,-5.4618,-5.468,-5.469,-5.4643,-5.4842,-5.4773,-5.4796,-5.4883,-5.5082,-5.5095,-5.5108,-5.5212,-5.5241,-5.5264,0,0,0,0,0,0,-5.4441,-5.4475,-5.4446,-5.4593,-5.4636,-5.4668,-5.4745,-5.471,-5.477,-5.4758,-5.4733,-5.4743,-5.4872,-5.4889,-5.4812,-5.5039,-5.4952,-5.497,-5.5023,-5.505,-5.5071,-5.5065,-5.4719,0,0,0,0,0,-5.448,-5.456,-5.4585,-5.4712,-5.4735,-5.4737,-5.478,-5.4763,-5.4806,-5.4823,-5.4842,-5.4884,-5.4956,-5.5004,-5.5071,-5.5224,-5.5231,-5.5294,-5.5316,-5.5333,-5.535,-5.5431,-5.5459,-5.5157,-5.5157,-5.5157,0,0,-5.4562,-5.459,-5.4642,-5.4733,-5.4764,-5.4846,-5.4752,-5.4843,-5.4904,-5.4836,-5.4953,-5.4969,-5.5014,-5.5152,-5.5214,-5.517,-5.5435,-5.535,-5.5364,-5.537,-5.5447,-5.5476,-5.5501,-5.5166,-5.5164,-5.5163,0,0,-5.4753,-5.4783,-5.4892,-5.4925,-5.4974,-5.4974,-5.5,-5.5038,-5.5046,-5.5163,-5.5114,-5.5184,-5.5309,-5.5343,-5.5377,-5.558,-5.5539,-5.5603,-5.5715,-5.5794,-5.5818,-5.5839,-5.5912,-5.5938,-5.5618,-5.5619,-5.5619,0,-5.4848,-5.4971,-5.4952,-5.5047,-5.5088,-5.5031,-5.514,-5.5173,-5.5241,-5.527,-5.522,-5.5375,-5.5402,-5.5547,-5.5597,-5.5626,-5.5654,-5.5598,-5.5817,-5.5837,-5.5857,-5.5926,-5.5953,-5.5626,-5.5625,-5.5625,-5.5624,0,-5.5086,-5.5172,-5.5254,-5.5322,-5.5372,-5.5474,-5.5468,-5.5521,-5.5499,-5.5504,-5.5623,-5.5653,-5.5725,-5.5758,-5.5738,-5.5901,-5.5872,-5.582,-5.5732,-5.5893,-5.5958,-5.5984,-5.5637,-5.5634,-5.5632,-5.563,0,0,-5.5343,-5.5399,-5.543,-5.546,-5.5509,-5.5575,-5.5673,-5.5745,-5.579,-5.5838,-5.592,-5.6026,-5.5978,-5.6017,-5.5999,-5.607,-5.6229,-5.6009,-5.6009,-5.6049,-5.6409,-5.6448,-5.6479,-5.6201,-5.6206,-5.621,-5.6406,0,-5.5536,-5.571,-5.5694,-5.5858,-5.5937,-5.5884,-5.5969,-5.6008,-5.6015,-5.6082,-5.6088,-5.6165,-5.6096,-5.6119,-5.6186,-5.6195,-5.6301,-5.6181,-5.6276,-5.628,-5.6267,-5.6513,-5.6555,-5.6738,-5.643,-5.6435,-5.6438,0,-5.5785,-5.5844,-5.6016,-5.6053,-5.6085,-5.6163,-5.6227,-5.6292,-5.6334,-5.6334,-5.6377,-5.6347,-5.6445,-5.6354,-5.6488,-5.6407,-5.6444,-5.6455,-5.6461,-5.647,-5.6369,-5.6528,-5.6796,-5.6824,-5.6477,-5.6474,-5.6471,0,-5.5956,-5.6077,-5.6196,-5.6223,-5.6269,-5.6325,-5.6346,-5.6384,-5.6427,-5.6483,-5.6511,-5.6576,-5.6612,-5.6663,-5.6652,-5.6587,-5.6788,-5.6696,-5.679,-5.6791,-5.6835,-5.6833,-5.7113,-5.6859,-5.6859,-5.6858,-5.6858,0,-5.6174,-5.6281,-5.6273,-5.6346,-5.6464,-5.6445,-5.6562,-5.6576,-5.661,-5.6683,-5.664,-5.671,-5.6691,-5.6759,-5.675,-5.6862,-5.6879,-5.6881,-5.6877,-5.6885,-5.6885,-5.691,-5.6897,-5.6866,-5.6864,-5.6863,-5.6861,0,-5.6385,-5.6384,-5.651,-5.6544,-5.6554,-5.664,-5.6668,-5.6736,-5.6739,-5.6833,-5.6853,-5.6858,-5.6937,-5.693,-5.7018,-5.7012,-5.715,-5.7131,-5.7137,-5.7133,-5.7227,-5.7218,-5.7533,-5.7573,-5.7293,-5.7296,-5.7298,0,-5.6524,-5.6606,-5.6648,-5.6695,-5.6721,-5.6797,-5.6842,-5.6825,-5.6873,-5.6927,-5.6989,-5.7063,-5.7122,-5.725,-5.726,-5.7327,-5.7309,-5.7415,-5.7319,-5.7324,-5.7311,-5.7307,-5.7314,-5.7434,-5.7437,-5.744,-5.7442,0,-5.6772,-5.6767,-5.6834,-5.6902,-5.6957,-5.7008,-5.7055,-5.7096,-5.7083,-5.7139,-5.722,-5.7266,-5.7356,-5.743,-5.7493,-5.7513,-5.7476,-5.7472,-5.7497,-5.7506,-5.7506,-5.7508,-5.7189,-5.7465,-5.7463,-5.7461,-5.746,-5.7459,-5.6951,-5.7021,-5.7062,-5.7138,-5.7172,-5.7217,-5.7282,-5.7294,-5.7361,-5.7434,-5.742,-5.751,-5.7549,-5.763,-5.7657,-5.7726,-5.7687,-5.7724,-5.7733,-5.7743,-5.7754,-5.7495,-5.7737,-5.7736,-5.7736,-5.7735,-5.7735,0,-5.7196,-5.722,-5.729,-5.7358,-5.7417,-5.7378,-5.7427,-5.7479,-5.756,-5.76,-5.7659,-5.7751,-5.7823,-5.7839,-5.7907,-5.796,-5.7944,-5.7978,-5.7974,-5.798,-5.7784,-5.7756,-5.799,-5.799,-5.799,-5.799,-5.799,-5.7989,-5.7331,-5.7447,-5.7448,-5.7579,-5.7601,-5.7691,-5.7723,-5.7763,-5.7795,-5.7901,-5.7961,-5.7971,-5.8001,-5.8071,-5.8135,-5.8137,-5.8164,-5.8206,-5.8202,-5.8019,-5.7993,-5.7969,-5.7942,-5.8212,-5.8212,-5.8391,-5.8393,-5.8394]}]]